Weather History for Lumberton, NC

Change the Weather History Date:

Tuesday, April 2, 2013

  Actual Average Record
Temperature  
Mean Temperature 54 °F 59 °F  
Max Temperature 64 °F 71 °F 84 °F (2007)
Min Temperature 43 °F 46 °F 36 °F (2011)
Degree Days  
Heating Degree Days 11 7  
Month to date heating degree days 16 15  
Since 1 July heating degree days 2626 2591  
Cooling Degree Days 0 1  
Month to date cooling degree days 0 2  
Year to date cooling degree days 5 15  
Growing Degree Days 4 (Base 50)    
Moisture  
Dew Point 37 °F    
Average Humidity 63    
Maximum Humidity 89    
Minimum Humidity 36    
Precipitation  
Precipitation 0.00 in 0.12 in 0.38 in (2005)
Month to date precipitation 0.10 0.24  
Year to date precipitation 7.55 9.44  
Sea Level Pressure  
Sea Level Pressure 30.08 in    
Wind  
Wind Speed 6 mph (NNE)    
Max Wind Speed 20 mph    
Max Gust Speed 24 mph    
Visibility 10 miles    
Events      
T = Trace of Precipitation, MM = Missing Value Source: NWS Daily Summary

Daily Weather History Graph

Daily Weather History Graph

Search for Another Location

Airport:

Trip Planner

Search our weather history database for the weather conditions in past years. The results will help you decide how hot, cold, wet, or windy it might be!

Date:

Astronomy

Apr. 02, 2013 Rise Set
Actual Time 7:01 AM EDT 7:38 PM EDT
Civil Twilight 6:36 AM EDT 8:03 PM EDT
Nautical Twilight 6:06 AM EDT 8:33 PM EDT
Astronomical Twilight 5:35 AM EDT 9:04 PM EDT
Moon 1:31 AM EDT (4/2) 12:00 PM EDT (4/2)
Length of Visible Light 13h 27m
Length of Day
12h 36m
Waning Gibbous, 56% of the Moon is Illuminated
Apr 2
Waning Gibbous
Apr 3
Last Quarter
Apr 10
New
Apr 18
First Quarter
Apr 25
Full

Hourly Weather History & Observations

Time (EDT) Temp. Windchill Dew Point Humidity Pressure Visibility Wind Dir Wind Speed Gust Speed Precip Events Conditions
12:54 AM 51.1 °F - 45.0 °F 80% 29.96 in 10.0 mi Calm Calm - N/A   Clear
1:54 AM 53.1 °F - 42.1 °F 66% 29.97 in 10.0 mi NNW 8.1 mph - N/A   Scattered Clouds
2:54 AM 53.1 °F - 41.0 °F 64% 29.99 in 10.0 mi North 8.1 mph - N/A   Scattered Clouds
3:54 AM 51.1 °F - 37.9 °F 61% 30.01 in 10.0 mi NNE 12.7 mph 24.2 mph N/A   Clear
4:54 AM 48.0 °F - 35.1 °F 61% 30.04 in 10.0 mi NNE 9.2 mph - N/A   Clear
5:54 AM 46.9 °F - 33.1 °F 59% 30.06 in 10.0 mi NE 8.1 mph - N/A   Clear
6:54 AM 45.0 °F 41.8 °F 32.0 °F 60% 30.10 in 10.0 mi NNE 5.8 mph - N/A   Clear
7:54 AM 46.0 °F 43.9 °F 33.1 °F 61% 30.14 in 10.0 mi NNE 4.6 mph - N/A   Clear
8:09 AM 46.4 °F 42.9 °F 33.8 °F 62% 30.14 in 10.0 mi NNE 6.9 mph - N/A   Partly Cloudy
8:54 AM 50.0 °F - 30.9 °F 48% 30.15 in 10.0 mi NE 8.1 mph - N/A   Clear
9:54 AM 53.1 °F - 30.0 °F 41% 30.16 in 10.0 mi NE 11.5 mph 18.4 mph N/A   Clear
10:54 AM 55.0 °F - 30.9 °F 40% 30.15 in 10.0 mi NNE 10.4 mph 19.6 mph N/A   Clear
11:54 AM 57.0 °F - 30.9 °F 37% 30.16 in 10.0 mi North 6.9 mph - N/A   Clear
12:54 PM 57.9 °F - 33.1 °F 39% 30.13 in 10.0 mi SE 3.5 mph - N/A   Clear
1:54 PM 60.1 °F - 36.0 °F 41% 30.11 in 10.0 mi WNW 5.8 mph - N/A   Clear
2:54 PM 61.0 °F - 37.0 °F 41% 30.09 in 10.0 mi Variable 5.8 mph - N/A   Clear
3:54 PM 62.1 °F - 37.0 °F 39% 30.06 in 10.0 mi West 9.2 mph - N/A   Clear
4:54 PM 63.0 °F - 37.0 °F 38% 30.05 in 10.0 mi Variable 6.9 mph - N/A   Clear
5:54 PM 62.1 °F - 37.0 °F 39% 30.06 in 10.0 mi Variable 6.9 mph - N/A   Clear
6:54 PM 60.1 °F - 37.0 °F 42% 30.06 in 10.0 mi West 9.2 mph - N/A   Clear
7:54 PM 53.1 °F - 37.9 °F 57% 30.07 in 10.0 mi Calm Calm - N/A   Clear
8:54 PM 48.9 °F - 42.1 °F 77% 30.08 in 10.0 mi Calm Calm - N/A   Clear
9:54 PM 50.0 °F - 42.1 °F 74% 30.11 in 10.0 mi SSE 4.6 mph - N/A   Clear
10:54 PM 48.9 °F - 41.0 °F 74% 30.11 in 10.0 mi SE 3.5 mph - N/A   Clear
11:54 PM 44.1 °F - 41.0 °F 89% 30.12 in 10.0 mi Calm Calm - N/A   Scattered Clouds